• In Belarus
  • List of Countries
  • For 7 days
  • Water Temperature
  • Satellite Maps
  • Weather Map
  • Weather Widgets
  • user-avatar
    Login

    Hourly Weather Cancale

    Today, 15 December, Friday

    Time Temperature Precipitation Wind Pressure Humidity
    00:00 +5°C° 0 mm 9 mps 746 mmHg 75%
    01:00 +5°C° 0.1 mm 8 mps 746 mmHg 76%
    02:00 +4°C° 0.1 mm 8 mps 747 mmHg 76%
    03:00 +4°C° 0.1 mm 8 mps 747 mmHg 77%
    04:00 +4°C° 0.3 mm 8 mps 747 mmHg 78%
    05:00 +4°C° 0.3 mm 8 mps 747 mmHg 79%
    06:00 +4°C° 0 mm 7 mps 747 mmHg 83%
    07:00 +4°C° 0.5 mm 8 mps 747 mmHg 81%
    08:00 +5°C° 0.5 mm 9 mps 747 mmHg 79%
    09:00 +5°C° 0.5 mm 10 mps 747 mmHg 77%
    10:00 +6°C° 0.2 mm 10 mps 748 mmHg 74%
    11:00 +6°C° 0.2 mm 10 mps 749 mmHg 71%
    12:00 +6°C° 0.2 mm 10 mps 750 mmHg 68%
    13:00 +6°C° 0 mm 9 mps 750 mmHg 68%
    14:00 +6°C° 0 mm 8 mps 751 mmHg 69%
    15:00 +5°C° 0 mm 7 mps 752 mmHg 70%
    16:00 +5°C° 0 mm 7 mps 752 mmHg 72%
    17:00 +4°C° 0 mm 7 mps 753 mmHg 74%
    18:00 +4°C° 0 mm 6 mps 754 mmHg 75%
    19:00 +4°C° 0 mm 6 mps 755 mmHg 77%
    20:00 +4°C° 0 mm 6 mps 755 mmHg 78%
    21:00 +4°C° 0 mm 6 mps 756 mmHg 80%
    22:00 +4°C° 0 mm 6 mps 757 mmHg 81%
    23:00 +4°C° 0 mm 6 mps 757 mmHg 82%

    Tomorrow, 16 December, Saturday

    Time Temperature Precipitation Wind Pressure Humidity
    00:00 +4°C° 0 mm 6 mps 758 mmHg 84%
    01:00 +3°C° 0.1 mm 6 mps 759 mmHg 84%
    02:00 +3°C° 0.1 mm 6 mps 759 mmHg 84%
    03:00 +3°C° 0.1 mm 5 mps 760 mmHg 84%
    04:00 +3°C° 0.1 mm 5 mps 760 mmHg 84%
    05:00 +3°C° 0.1 mm 5 mps 761 mmHg 83%
    06:00 +2°C° 0.1 mm 5 mps 761 mmHg 83%
    07:00 +4°C° 0 mm 4 mps 762 mmHg 81%
    08:00 +4°C° 0 mm 4 mps 763 mmHg 80%
    09:00 +4°C° 0 mm 4 mps 764 mmHg 79%
    10:00 +5°C° 0.1 mm 4 mps 764 mmHg 75%
    11:00 +6°C° 0.1 mm 5 mps 764 mmHg 71%
    12:00 +7°C° 0.1 mm 5 mps 765 mmHg 67%
    13:00 +7°C° 0.1 mm 5 mps 765 mmHg 69%
    14:00 +7°C° 0.1 mm 5 mps 765 mmHg 71%
    15:00 +6°C° 0.1 mm 5 mps 765 mmHg 73%
    16:00 +6°C° 0.3 mm 5 mps 766 mmHg 76%
    17:00 +5°C° 0.3 mm 6 mps 766 mmHg 79%
    18:00 +4°C° 0.3 mm 6 mps 767 mmHg 82%
    19:00 +4°C° 0.4 mm 6 mps 767 mmHg 82%
    20:00 +5°C° 0.4 mm 6 mps 767 mmHg 83%
    21:00 +5°C° 0.4 mm 6 mps 768 mmHg 83%
    22:00 +6°C° 0.3 mm 5 mps 768 mmHg 84%
    23:00 +6°C° 0.3 mm 5 mps 768 mmHg 84%

    Day after tomorrow, 17 December, Sunday

    Time Temperature Precipitation Wind Pressure Humidity
    00:00 +5°C° 0.3 mm 4 mps 768 mmHg 85%
    01:00 +5°C° 0.2 mm 4 mps 769 mmHg 85%
    02:00 +5°C° 0.2 mm 3 mps 769 mmHg 86%
    03:00 +5°C° 0.2 mm 3 mps 769 mmHg 86%
    04:00 +5°C° 0.1 mm 3 mps 769 mmHg 87%
    05:00 +6°C° 0.1 mm 2 mps 769 mmHg 87%
    06:00 +6°C° 0.1 mm 2 mps 769 mmHg 88%
    07:00 +6°C° 0.1 mm 2 mps 770 mmHg 88%
    08:00 +6°C° 0.1 mm 2 mps 770 mmHg 88%
    09:00 +6°C° 0.1 mm 2 mps 771 mmHg 88%
    10:00 +7°C° 0.1 mm 2 mps 771 mmHg 86%
    11:00 +8°C° 0.1 mm 3 mps 771 mmHg 84%
    12:00 +9°C° 0.1 mm 3 mps 771 mmHg 83%
    13:00 +9°C° 0.1 mm 3 mps 771 mmHg 83%
    14:00 +8°C° 0.1 mm 4 mps 771 mmHg 83%
    15:00 +8°C° 0.1 mm 4 mps 770 mmHg 83%
    16:00 +7°C° 0 mm 4 mps 771 mmHg 84%
    17:00 +7°C° 0 mm 5 mps 771 mmHg 86%
    18:00 +6°C° 0 mm 5 mps 771 mmHg 88%
    19:00 +6°C° 0 mm 5 mps 771 mmHg 87%
    20:00 +6°C° 0 mm 5 mps 771 mmHg 87%
    21:00 +5°C° 0 mm 6 mps 772 mmHg 87%
    22:00 +5°C° 0 mm 6 mps 771 mmHg 87%
    23:00 +7°C° 0 mm 6 mps 771 mmHg 88%

    18 December, Monday

    Time Temperature Precipitation Wind Pressure Humidity
    00:00 +7°C° 0 mm 6 mps 771 mmHg 88%
    01:00 +7°C° 0.1 mm 6 mps 771 mmHg 89%
    02:00 +8°C° 0.1 mm 7 mps 771 mmHg 90%
    03:00 +8°C° 0.1 mm 7 mps 771 mmHg 91%
    04:00 +8°C° 0.1 mm 7 mps 771 mmHg 91%
    05:00 +9°C° 0.1 mm 7 mps 771 mmHg 92%
    06:00 +9°C° 0.1 mm 7 mps 771 mmHg 92%
    07:00 +9°C° 0.1 mm 7 mps 772 mmHg 92%
    08:00 +9°C° 0.1 mm 6 mps 772 mmHg 92%
    09:00 +10°C° 0.1 mm 6 mps 772 mmHg 93%
    10:00 +10°C° 0.3 mm 6 mps 772 mmHg 92%
    11:00 +10°C° 0.3 mm 6 mps 772 mmHg 92%
    12:00 +10°C° 0.3 mm 6 mps 772 mmHg 91%
    13:00 +10°C° 0.4 mm 6 mps 772 mmHg 92%
    14:00 +10°C° 0.4 mm 6 mps 772 mmHg 93%
    15:00 +10°C° 0.4 mm 5 mps 772 mmHg 94%
    16:00 +10°C° 0.2 mm 5 mps 772 mmHg 94%
    17:00 +10°C° 0.2 mm 5 mps 773 mmHg 95%
    18:00 +11°C° 0.2 mm 4 mps 773 mmHg 96%
    19:00 +11°C° 0.1 mm 4 mps 773 mmHg 96%
    20:00 +11°C° 0.1 mm 4 mps 773 mmHg 96%
    21:00 +11°C° 0.1 mm 4 mps 774 mmHg 97%
    22:00 +11°C° 0.1 mm 4 mps 774 mmHg 97%
    23:00 +11°C° 0.1 mm 4 mps 774 mmHg 97%

    19 December, Tuesday

    Time Temperature Precipitation Wind Pressure Humidity
    00:00 +11°C° 0.1 mm 3 mps 774 mmHg 97%
    01:00 +11°C° 0 mm 3 mps 774 mmHg 97%
    02:00 +11°C° 0 mm 3 mps 774 mmHg 97%
    03:00 +11°C° 0 mm 3 mps 774 mmHg 97%
    04:00 +11°C° 0.1 mm 3 mps 774 mmHg 97%
    05:00 +12°C° 0.1 mm 3 mps 774 mmHg 97%
    06:00 +12°C° 0.1 mm 3 mps 774 mmHg 98%
    07:00 +12°C° 0.1 mm 3 mps 774 mmHg 97%
    08:00 +12°C° 0.1 mm 3 mps 775 mmHg 97%
    09:00 +12°C° 0.1 mm 3 mps 775 mmHg 97%
    10:00 +12°C° 0 mm 3 mps 775 mmHg 96%
    11:00 +13°C° 0 mm 3 mps 775 mmHg 95%
    12:00 +13°C° 0 mm 4 mps 775 mmHg 94%
    13:00 +13°C° 0 mm 3 mps 775 mmHg 94%
    14:00 +13°C° 0 mm 3 mps 775 mmHg 93%
    15:00 +13°C° 0 mm 3 mps 775 mmHg 93%
    16:00 +13°C° 0 mm 3 mps 775 mmHg 94%
    17:00 +12°C° 0 mm 3 mps 776 mmHg 95%
    18:00 +12°C° 0 mm 3 mps 776 mmHg 97%
    19:00 +12°C° 0 mm 3 mps 776 mmHg 97%
    20:00 +12°C° 0 mm 3 mps 776 mmHg 97%
    21:00 +12°C° 0 mm 3 mps 777 mmHg 97%
    22:00 +12°C° 0 mm 3 mps 777 mmHg 97%
    23:00 +11°C° 0 mm 3 mps 777 mmHg 97%

    20 December, Wednesday

    Time Temperature Precipitation Wind Pressure Humidity
    00:00 +12°C° 0 mm 2 mps 777 mmHg 97%
    01:00 +12°C° 0 mm 2 mps 777 mmHg 97%
    02:00 +12°C° 0 mm 2 mps 777 mmHg 97%
    03:00 +10°C° 0 mm 2 mps 777 mmHg 96%
    04:00 +10°C° 0 mm 2 mps 777 mmHg 96%
    05:00 +10°C° 0 mm 2 mps 777 mmHg 96%
    06:00 +10°C° 0 mm 2 mps 777 mmHg 95%
    07:00 +10°C° 0 mm 2 mps 778 mmHg 94%
    08:00 +10°C° 0 mm 2 mps 778 mmHg 93%
    09:00 +10°C° 0 mm 2 mps 778 mmHg 92%
    10:00 +12°C° 0 mm 2 mps 778 mmHg 89%
    11:00 +13°C° 0 mm 2 mps 778 mmHg 85%
    12:00 +14°C° 0 mm 2 mps 778 mmHg 81%
    13:00 +13°C° 0 mm 2 mps 778 mmHg 81%
    14:00 +13°C° 0 mm 2 mps 778 mmHg 82%
    15:00 +13°C° 0 mm 2 mps 778 mmHg 82%
    16:00 +12°C° 0 mm 2 mps 778 mmHg 85%
    17:00 +10°C° 0 mm 2 mps 779 mmHg 87%
    18:00 +9°C° 0 mm 2 mps 779 mmHg 89%
    19:00 +9°C° 0 mm 2 mps 779 mmHg 89%
    20:00 +9°C° 0 mm 2 mps 779 mmHg 89%
    21:00 +8°C° 0 mm 2 mps 779 mmHg 90%
    22:00 +8°C° 0 mm 2 mps 779 mmHg 90%
    23:00 +8°C° 0 mm 2 mps 779 mmHg 90%
    Show more